Location: Unspecified
(0.0000°N, 0.0000°E)
Time: 07:28:37
(UTC+00:00)

Courier 1B - Pass Details

Date: 24 September 2023
Orbit: 962 x 1208 km, 28.3° (Epoch: 06 December)

Event Time Altitude Azimuth Distance (km) Brightness Sun altitude
Rises 10:36:14 0° 246° (WSW) 3,908 10.5 71.0°
Reaches altitude 10° 10:38:57 10° 248° (WSW) 2,984 10.0 71.7°
Maximum altitude 10:46:20 68° 330° (NNW) 1,244 9.2 73.5°
Drops below altitude 10° 10:54:03 10° 52° (NE) 3,120 10.5 75.5°
Sets 10:56:58 0° 54° (NE) 4,095 10.9 76.2°
